Tracking 28799 objects as of 18-Apr-2024
HD Live streaming from Space Station
objects crossing your sky now

DELTA 1 DEB

Track DELTA 1 DEB now!
10-day predictions


NORAD ID: 7053
Int'l Code: 1973-086AV
Perigee: 1,443.4 km
Apogee: 1,513.3 km
Inclination: 101.8 °
Period: 115.3 minutes
Semi major axis: 7849 km
RCS: 0.1024 m2 (medium)
Launch date: November 6, 1973
Source: United States (US)
Launch site: AIR FORCE WESTERN TEST RANGE (AFWTR)

Note: This is SATELLITE DEBRIS
Your satellite tracking list
Your tracking list is empty




NASA's NSSDC Master Catalog

Two Line Element Set (TLE):
1 07053U 73086AV  24108.74029168  .00000069  00000-0  75707-3 0  9995
2 07053 101.8072 186.2422 0044480  13.8885 110.0751 12.48395221295596
Source of the keplerian elements: AFSPC